This is the latest recevied weather packets stored in our database for station/object WW6Q. If no packets are shown the sender has not sent any weather packets the latest 10 day(s).
| Time | Temp. | Humidity | Pressure | Rain* | Wind** | Luminosity | Snow |
|---|---|---|---|---|---|---|---|
| 1788093610 | 19.44° C | 93% | 1018.1 hPa | 0 mm | - | 17 W/m² | - |
| 1788093308 | 18.89° C | 93% | 1018.2 hPa | 0 mm | - | 27 W/m² | - |
| 1788093008 | 19.44° C | 92% | 1018 hPa | 0 mm | - | 22 W/m² | - |
| 1788092704 | 19.44° C | 92% | 1017.8 hPa | 0 mm | - | 17 W/m² | - |
| 1788092400 | 18.89° C | 91% | 1017.6 hPa | 0 mm | - | 17 W/m² | - |
| 1788092096 | 18.89° C | 92% | 1017.6 hPa | 0 mm | - | 28 W/m² | - |
| 1788091795 | 18.89° C | 91% | 1017.1 hPa | 0 mm | - | 32 W/m² | - |
| 1788091490 | 19.44° C | 91% | 1017.5 hPa | 0 mm | - | 24 W/m² | - |
| 1788091187 | 19.44° C | 90% | 1017.3 hPa | 0 mm | - | 25 W/m² | - |
| 1788090883 | 19.44° C | 90% | 1017.5 hPa | 0 mm | - | 27 W/m² | - |
| 1788090578 | 18.89° C | 89% | 1017.5 hPa | 0 mm | - | 25 W/m² | - |
| 1788090275 | 18.89° C | 91% | 1017.2 hPa | 0 mm | - | 18 W/m² | - |
| 1788089980 | 18.89° C | 91% | 1016.8 hPa | 0 mm | - | 13 W/m² | - |
| 1788089670 | 18.89° C | 91% | 1017.2 hPa | 0 mm | - | 10 W/m² | - |
| 1788089365 | 18.89° C | 90% | 1017 hPa | 0 mm | - | 9 W/m² | - |
| 1788089061 | 18.89° C | 91% | 1017 hPa | 0 mm | - | 8 W/m² | - |
| 1788088757 | 18.89° C | 92% | 1017.1 hPa | 0 mm | - | 6 W/m² | - |
| 1788088452 | 18.89° C | 91% | 1016.7 hPa | 0 mm | - | 4 W/m² | - |
| 1788088148 | 18.89° C | 91% | 1016.5 hPa | 0 mm | - | 2 W/m² | - |
| 1788087844 | 18.89° C | 92% | 1016.7 hPa | 0 mm | - | 1 W/m² | - |
| 1788087542 | 18.89° C | 92% | 1016.9 hPa | 0 mm | - | 0 W/m² | - |
| 1788087239 | 18.89° C | 91% | 1017 hPa | 0 mm | - | 0 W/m² | - |
| 1788086935 | 18.89° C | 91% | 1017.1 hPa | 1.27 mm | - | 0 W/m² | - |
| 1788086632 | 18.89° C | 91% | 1017.3 hPa | 1.27 mm | - | 0 W/m² | - |
| 1788086330 | 18.89° C | 92% | 1017.5 hPa | 1.27 mm | - | 0 W/m² | - |
* Rain latest hour (hover to see other rain measurements)
** Current wind speed in m/s (hover to see current wind gust speed)